Location: Estes Par
(40.3770°N, 10.0000°W)
Time: 22:45:47

N. Korean satellite - Visible Passes

Search period start: 22 March 2018 00:00
Search period end: 01 April 2018 00:00
Orbit: 460 x 512 km, 97.2° (Epoch: 22 March)

Date Brightness Start Highest point End Pass type
(mag) Time Alt. Az. Time Alt. Az. Time Alt. Az.
23 Mar 10.2 13:40:44 10° WSW 13:42:19 12° W 13:43:56 10° WNW visible
27 Mar 10.1 13:38:39 10° WSW 13:40:27 13° W 13:42:16 10° WNW visible
31 Mar 10.1 13:36:35 10° WSW 13:38:32 14° W 13:40:31 10° WNW visible
